Date,TemperatureHighF,TemperatureAvgF,TemperatureLowF,DewpointHighF,DewpointAvgF,DewpointLowF,HumidityHigh,HumidityAvg,HumidityLow,PressureMaxIn,PressureMinIn,WindSpeedMaxMPH,WindSpeedAvgMPH,GustSpeedMaxMPH,PrecipitationSumIn
2013-3-1,31,28,24,30,25,22,97,86,78,30.09,29.95,7,4,18,0.00
2013-3-2,29,26,24,24,22,21,93,88,73,30.09,30.04,10,5,14,0.00
2013-3-3,25,22,15,22,18,13,94,84,70,30.13,30.06,9,4,14,0.00
2013-3-4,38,25,13,24,18,12,94,78,45,30.24,30.13,5,1,11,0.00
2013-3-5,39,34,27,31,25,22,96,71,54,30.16,29.63,5,2,13,0.01
2013-3-6,38,34,31,33,32,30,98,90,75,30.24,29.62,7,4,13,0.20
2013-3-7,40,34,30,32,30,28,94,85,71,30.40,30.22,8,5,13,0.00
2013-3-8,44,34,24,31,27,23,95,78,55,30.52,30.39,6,2,13,0.00
2013-3-9,55,38,20,35,28,19,98,73,42,30.47,30.14,7,2,16,0.00
2013-3-10,68,55,40,40,36,30,91,51,32,30.14,29.89,8,2,16,0.02
2013-3-11,61,51,41,50,43,36,96,77,40,29.90,29.58,10,4,17,0.59
2013-3-12,41,35,28,36,31,27,97,85,76,30.05,29.80,9,4,16,0.00
2013-3-13,31,28,25,31,24,19,99,84,70,30.29,30.00,14,7,20,0.00
2013-3-14,39,29,21,24,20,17,88,71,51,30.35,30.20,10,4,20,0.00
2013-3-15,47,36,22,39,31,20,97,80,66,30.20,29.89,6,2,15,0.04
2013-3-16,49,39,30,46,38,28,100,96,85,30.05,29.66,11,3,16,0.02
2013-3-17,36,32,30,29,26,24,93,81,66,30.23,30.06,5,2,10,0.00
2013-3-18,48,38,30,48,36,24,100,95,78,30.15,29.65,13,4,17,0.48
2013-3-19,38,32,28,36,25,19,94,74,55,30.06,29.80,16,8,27,0.01
2013-3-20,32,28,21,22,18,14,81,67,58,30.06,29.95,12,7,27,0.00
2013-3-21,30,22,14,23,16,9,85,76,65,30.05,29.97,10,5,18,0.00
2013-3-22,40,29,20,24,20,16,87,71,48,30.10,30.03,10,4,16,0.00
2013-3-23,45,36,24,27,24,19,85,62,43,30.13,30.03,7,3,16,0.00
2013-3-24,38,32,27,28,24,23,84,73,60,30.03,29.49,6,3,16,0.00
2013-3-25,35,32,31,33,31,28,99,95,84,29.90,29.44,8,3,14,0.14
2013-3-26,41,35,31,32,29,23,96,82,52,30.17,29.90,11,7,15,0.18
2013-3-27,42,38,32,30,29,27,88,71,58,30.27,30.23,14,9,23,0.00
2013-3-28,45,37,28,32,28,23,82,69,53,30.34,30.27,11,6,23,0.00
2013-3-29,51,41,33,31,28,26,78,62,42,30.34,30.23,10,4,23,0.00
2013-3-30,55,40,22,34,28,20,95,65,32,30.30,30.02,5,1,18,0.00
2013-3-31,53,44,38,46,38,27,97,79,59,30.02,29.75,7,2,14,0.12